Location: Dos Palmas
(32.4468°N, 116.8732°W)
Time: 23:04:55
(UTC+00:00)

Cosmos 1553 Rocket - Pass Details

Date: 20 June 2021
Orbit: 940 x 1009 km, 82.9° (Epoch: 01 August)

Event Time Altitude Azimuth Distance (km) Brightness Sun altitude
Rises 10:49:28 0° 346° (NNW) 3,693 7.5 -19.5°
Reaches altitude 10° 10:52:05 10° 341° (NNW) 2,731 6.7 -19.1°
Maximum altitude 10:58:00 47° 270° (W) 1,265 4.3 -18.2°
Enters shadow 11:00:54 28° 214° (SW) 1,726 4.7 -17.8°
